Torna al catalogo

FENGYUN 1C DEB

AttivoLEO
NORAD 31569·DEBRIS·🇨🇳 China

Lanciato May 10, 1999 da Taiyuan Satellite Launch Center

Loading…

Prossimi Passaggi (prossime 24 ore)

TLE

AggiornatoSource: Space-Track

Epoca: Sep 14, 2026, 16:17 UTC

1 31569U 99025BZL 26257.67861568  .00002933  00000-0  18793-2 0  9995
2 31569 102.6073 161.1374 0174630  67.4208 324.6506 13.97401071975310

Traccia FENGYUN 1C DEB in tempo reale con AllMySat

Download on the App Store